Location: Newark
(34.3481°N, 134.0494°E)
Time: 15:15:44
(UTC+00:00)

Vanguard 3 - Pass Details

Date: 05 February 2020
Orbit: 508 x 3263 km, 33.3° (Epoch: 25 February)

Event Time Altitude Azimuth Distance (km) Brightness Sun altitude
Rises 09:18:47 0° 280° (W) 6,687 13.2 -9.2°
Reaches altitude 10° 09:22:53 10° 279° (W) 5,884 12.8 -10.0°
Maximum altitude 09:42:34 78° 197° (SSW) 3,267 10.2 -14.0°
Enters shadow 09:59:37 11° 115° (ESE) 5,225 10.8 -17.4°
Drops below altitude 10° 09:59:56 10° 115° (ESE) 5,291 - -17.5°
Sets 10:03:24 0° 114° (ESE) 6,017 - -18.2°
